Time,TemperatureF,DewpointF,PressureIn,WindDirection,WindDirectionDegrees,WindSpeedMPH,WindSpeedGustMPH,Humidity,HourlyPrecipIn,Conditions,Clouds,dailyrainin,SoftwareType,DateUTC
2013-11-11 00:04:00,42.6,39.9,30.15,ESE,112,0.0,0.0,90,0.00,,CLR,0.00,VWS V14.01,2013-11-11 08:04:00,
2013-11-11 00:09:00,42.6,39.9,30.14,South,180,0.0,0.0,90,0.00,,CLR,0.00,VWS V14.01,2013-11-11 08:09:00,
2013-11-11 00:14:00,42.6,39.9,30.14,NNE,22,0.0,0.0,90,0.00,,CLR,0.00,VWS V14.01,2013-11-11 08:14:00,
2013-11-11 00:19:00,42.6,39.9,30.15,WSW,248,0.0,0.0,90,0.00,,CLR,0.00,VWS V14.01,2013-11-11 08:19:00,
2013-11-11 00:24:00,42.6,39.9,30.15,SSE,158,0.0,0.0,90,0.00,,CLR,0.00,VWS V14.01,2013-11-11 08:24:00,
2013-11-11 00:29:00,42.6,39.9,30.15,SW,225,0.0,0.0,90,0.00,,CLR,0.00,VWS V14.01,2013-11-11 08:29:00,
2013-11-11 00:34:00,42.6,39.9,30.15,SSW,202,0.0,0.0,90,0.00,,CLR,0.00,VWS V14.01,2013-11-11 08:34:00,
2013-11-11 00:39:00,42.6,39.9,30.15,SSW,202,0.0,0.0,90,0.00,,CLR,0.00,VWS V14.01,2013-11-11 08:39:00,
2013-11-11 00:44:00,42.6,39.9,30.14,NW,315,0.0,0.0,90,0.00,,CLR,0.00,VWS V14.01,2013-11-11 08:44:00,
2013-11-11 00:49:00,42.6,39.9,30.14,WSW,248,0.0,0.0,90,0.00,,CLR,0.00,VWS V14.01,2013-11-11 08:49:00,
2013-11-11 00:54:00,42.8,40.1,30.14,West,270,0.0,0.0,90,0.00,,CLR,0.00,VWS V14.01,2013-11-11 08:54:00,
2013-11-11 00:59:00,42.8,40.1,30.15,West,270,0.0,0.0,90,0.00,,CLR,0.00,VWS V14.01,2013-11-11 08:59:00,
2013-11-11 01:04:00,42.8,40.1,30.15,WNW,292,0.0,0.0,90,0.00,,CLR,0.00,VWS V14.01,2013-11-11 09:04:00,
2013-11-11 01:10:00,42.6,39.9,30.15,WNW,292,0.0,0.0,90,0.00,,CLR,0.00,VWS V14.01,2013-11-11 09:10:00,
2013-11-11 01:15:00,42.6,39.9,30.15,WNW,292,0.0,0.0,90,0.00,,CLR,0.00,VWS V14.01,2013-11-11 09:15:00,
2013-11-11 01:20:00,42.6,39.9,30.15,West,270,0.0,0.0,90,0.00,,CLR,0.00,VWS V14.01,2013-11-11 09:20:00,
2013-11-11 01:25:00,42.6,39.9,30.15,West,270,0.0,0.0,90,0.00,,CLR,0.00,VWS V14.01,2013-11-11 09:25:00,
2013-11-11 01:30:00,42.6,39.9,30.15,West,270,0.0,0.0,90,0.00,,CLR,0.00,VWS V14.01,2013-11-11 09:30:00,
2013-11-11 01:35:00,42.6,39.9,30.15,West,270,0.0,0.0,90,0.00,,CLR,0.00,VWS V14.01,2013-11-11 09:35:00,
2013-11-11 01:40:00,42.6,39.9,30.15,West,270,0.0,0.0,90,0.00,,CLR,0.00,VWS V14.01,2013-11-11 09:40:00,
2013-11-11 01:45:00,42.4,39.7,30.15,SW,225,0.0,0.0,90,0.00,,CLR,0.00,VWS V14.01,2013-11-11 09:45:00,
2013-11-11 01:50:00,42.4,39.7,30.15,SSE,158,0.0,0.0,90,0.00,,CLR,0.00,VWS V14.01,2013-11-11 09:50:00,
2013-11-11 01:55:00,42.4,39.7,30.15,SSE,158,0.0,0.0,90,0.00,,CLR,0.00,VWS V14.01,2013-11-11 09:55:00,
2013-11-11 02:00:00,42.4,39.7,30.15,North,0,0.0,0.0,90,0.00,,CLR,0.00,VWS V14.01,2013-11-11 10:00:00,
2013-11-11 02:05:00,42.4,39.7,30.16,WSW,248,0.0,0.0,90,0.00,,CLR,0.00,VWS V14.01,2013-11-11 10:05:00,
2013-11-11 02:10:00,42.4,39.7,30.15,North,0,0.0,0.0,90,0.00,,CLR,0.00,VWS V14.01,2013-11-11 10:10:00,
2013-11-11 02:15:00,42.4,39.7,30.15,NNE,22,0.0,0.0,90,0.00,,CLR,0.00,VWS V14.01,2013-11-11 10:15:00,
2013-11-11 02:20:00,42.4,39.7,30.15,NNE,22,0.0,0.0,90,0.00,,CLR,0.00,VWS V14.01,2013-11-11 10:20:00,
2013-11-11 02:25:00,42.4,39.7,30.15,NE,45,0.0,0.0,90,0.00,,CLR,0.00,VWS V14.01,2013-11-11 10:25:00,
2013-11-11 02:30:00,42.4,39.7,30.15,NE,45,0.0,0.0,90,0.00,,CLR,0.00,VWS V14.01,2013-11-11 10:30:00,
2013-11-11 02:35:00,42.4,39.7,30.15,SW,225,0.0,0.0,90,0.00,,CLR,0.00,VWS V14.01,2013-11-11 10:35:00,
2013-11-11 02:40:00,42.2,39.5,30.15,North,0,0.0,0.0,90,0.00,,CLR,0.00,VWS V14.01,2013-11-11 10:40:00,
2013-11-11 02:45:00,42.0,39.3,30.15,NW,315,0.0,0.0,90,0.00,,CLR,0.00,VWS V14.01,2013-11-11 10:45:00,
2013-11-11 02:50:00,42.0,39.3,30.15,SSE,158,0.0,0.0,90,0.00,,CLR,0.00,VWS V14.01,2013-11-11 10:50:00,
2013-11-11 02:55:00,42.0,39.3,30.15,NNE,22,0.0,0.0,90,0.00,,CLR,0.00,VWS V14.01,2013-11-11 10:55:00,
2013-11-11 03:00:00,42.0,39.3,30.16,NNE,22,0.0,0.0,90,0.00,,CLR,0.00,VWS V14.01,2013-11-11 11:00:00,
2013-11-11 03:05:00,42.0,39.3,30.16,NNE,22,0.0,0.0,90,0.00,,CLR,0.00,VWS V14.01,2013-11-11 11:05:00,
2013-11-11 03:10:00,41.9,39.2,30.16,SSE,158,0.0,0.0,90,0.00,,CLR,0.00,VWS V14.01,2013-11-11 11:10:00,
2013-11-11 03:15:00,41.7,39.0,30.16,SE,135,0.0,0.0,90,0.00,,CLR,0.00,VWS V14.01,2013-11-11 11:15:00,
2013-11-11 03:20:00,41.7,39.0,30.16,SSE,158,0.0,0.0,90,0.00,,CLR,0.00,VWS V14.01,2013-11-11 11:20:00,
2013-11-11 03:25:00,41.7,39.0,30.16,SSE,158,0.0,0.0,90,0.00,,CLR,0.00,VWS V14.01,2013-11-11 11:25:00,
2013-11-11 03:30:00,41.5,38.8,30.16,ESE,112,0.0,0.0,90,0.00,,CLR,0.00,VWS V14.01,2013-11-11 11:30:00,
2013-11-11 03:35:00,41.5,38.8,30.16,SE,135,0.0,0.0,90,0.00,,CLR,0.00,VWS V14.01,2013-11-11 11:35:00,
2013-11-11 03:40:00,41.5,38.8,30.15,NE,45,0.0,0.0,90,0.00,,CLR,0.00,VWS V14.01,2013-11-11 11:40:00,
2013-11-11 03:45:00,41.3,38.9,30.15,North,0,0.0,0.0,91,0.00,,CLR,0.00,VWS V14.01,2013-11-11 11:45:00,
2013-11-11 03:50:00,41.3,38.9,30.15,NNW,338,0.0,0.0,91,0.00,,CLR,0.00,VWS V14.01,2013-11-11 11:50:00,
2013-11-11 03:55:00,41.1,38.7,30.16,SE,135,0.0,0.0,91,0.00,,CLR,0.00,VWS V14.01,2013-11-11 11:55:00,
2013-11-11 04:00:00,41.3,38.9,30.16,NNE,22,0.0,1.1,91,0.00,,CLR,0.00,VWS V14.01,2013-11-11 12:00:00,
2013-11-11 04:05:00,41.3,38.9,30.16,NNE,22,0.0,0.0,91,0.00,,CLR,0.00,VWS V14.01,2013-11-11 12:05:00,
2013-11-11 04:10:00,41.3,38.9,30.16,NNE,22,0.0,0.0,91,0.00,,CLR,0.00,VWS V14.01,2013-11-11 12:10:00,
2013-11-11 04:15:00,41.1,38.7,30.15,NNE,22,0.0,0.0,91,0.00,,CLR,0.00,VWS V14.01,2013-11-11 12:15:00,
2013-11-11 04:20:00,41.1,38.4,30.15,NNE,22,0.0,0.0,90,0.00,,CLR,0.00,VWS V14.01,2013-11-11 12:20:00,
2013-11-11 04:25:00,41.0,38.3,30.16,NNE,22,0.0,0.0,90,0.00,,CLR,0.00,VWS V14.01,2013-11-11 12:25:00,
2013-11-11 04:30:00,41.0,38.3,30.15,NNE,22,0.0,0.0,90,0.00,,CLR,0.00,VWS V14.01,2013-11-11 12:30:00,
2013-11-11 04:35:00,40.8,38.1,30.14,NNE,22,0.0,0.0,90,0.00,,CLR,0.00,VWS V14.01,2013-11-11 12:35:00,
2013-11-11 04:40:00,40.8,38.1,30.15,NNE,22,0.0,0.0,90,0.00,,CLR,0.00,VWS V14.01,2013-11-11 12:40:00,
2013-11-11 04:45:00,40.8,38.1,30.15,NNE,22,0.0,0.0,90,0.00,,CLR,0.00,VWS V14.01,2013-11-11 12:45:00,
2013-11-11 04:50:00,40.8,38.1,30.15,NNE,22,0.0,0.0,90,0.00,,CLR,0.00,VWS V14.01,2013-11-11 12:50:00,
2013-11-11 04:55:00,40.8,38.1,30.15,NNE,22,0.0,0.0,90,0.00,,CLR,0.00,VWS V14.01,2013-11-11 12:55:00,
2013-11-11 05:00:00,40.8,38.1,30.16,NNE,22,0.0,0.0,90,0.00,,CLR,0.00,VWS V14.01,2013-11-11 13:00:00,
2013-11-11 05:05:00,40.8,38.1,30.16,NNE,22,0.0,0.0,90,0.00,,CLR,0.00,VWS V14.01,2013-11-11 13:05:00,
2013-11-11 05:10:00,40.8,38.1,30.16,NNE,22,0.0,0.0,90,0.00,,CLR,0.00,VWS V14.01,2013-11-11 13:10:00,
2013-11-11 05:15:00,40.8,38.1,30.15,NNE,22,0.0,0.0,90,0.00,,CLR,0.00,VWS V14.01,2013-11-11 13:15:00,
2013-11-11 05:20:00,40.8,38.1,30.15,NNE,22,0.0,0.0,90,0.00,,CLR,0.00,VWS V14.01,2013-11-11 13:20:00,
2013-11-11 05:25:00,40.8,38.1,30.15,NNE,22,0.0,0.0,90,0.00,,CLR,0.00,VWS V14.01,2013-11-11 13:25:00,
2013-11-11 05:30:00,40.8,38.1,30.16,NNE,22,0.0,0.0,90,0.00,,CLR,0.00,VWS V14.01,2013-11-11 13:30:00,
2013-11-11 05:35:00,40.8,38.1,30.16,North,0,0.0,0.0,90,0.00,,CLR,0.00,VWS V14.01,2013-11-11 13:35:00,
2013-11-11 05:40:00,40.6,37.9,30.16,North,0,0.0,0.0,90,0.00,,CLR,0.00,VWS V14.01,2013-11-11 13:40:00,
2013-11-11 05:45:00,40.6,37.9,30.16,North,0,0.0,0.0,90,0.00,,CLR,0.00,VWS V14.01,2013-11-11 13:45:00,
2013-11-11 05:50:00,40.6,37.9,30.16,North,0,0.0,0.0,90,0.00,,CLR,0.00,VWS V14.01,2013-11-11 13:50:00,
2013-11-11 05:55:00,40.6,37.9,30.16,North,0,0.0,0.0,90,0.00,,CLR,0.00,VWS V14.01,2013-11-11 13:55:00,
2013-11-11 06:00:00,40.4,37.7,30.16,North,0,0.0,0.0,90,0.00,,CLR,0.00,VWS V14.01,2013-11-11 14:00:00,
2013-11-11 06:05:00,40.2,37.5,30.16,North,0,0.0,0.0,90,0.00,,CLR,0.00,VWS V14.01,2013-11-11 14:05:00,
2013-11-11 06:10:00,40.1,37.4,30.17,North,0,0.0,0.0,90,0.00,,CLR,0.00,VWS V14.01,2013-11-11 14:10:00,
2013-11-11 06:15:00,39.9,37.2,30.17,North,0,0.0,0.0,90,0.00,,CLR,0.00,VWS V14.01,2013-11-11 14:15:00,
2013-11-11 06:20:00,39.9,37.5,30.17,North,0,0.0,0.0,91,0.00,,CLR,0.00,VWS V14.01,2013-11-11 14:20:00,
2013-11-11 06:25:00,39.7,37.3,30.17,North,0,0.0,0.0,91,0.00,,CLR,0.00,VWS V14.01,2013-11-11 14:25:00,
2013-11-11 06:30:00,39.7,37.3,30.17,North,0,0.0,0.0,91,0.00,,CLR,0.00,VWS V14.01,2013-11-11 14:30:00,
2013-11-11 06:35:00,39.7,37.3,30.17,North,0,0.0,0.0,91,0.00,,CLR,0.00,VWS V14.01,2013-11-11 14:35:00,
2013-11-11 06:40:00,39.7,37.3,30.16,NNE,22,0.0,0.0,91,0.00,,CLR,0.00,VWS V14.01,2013-11-11 14:40:00,
2013-11-11 06:45:00,39.5,37.1,30.16,NNE,22,0.0,0.0,91,0.00,,CLR,0.00,VWS V14.01,2013-11-11 14:45:00,
2013-11-11 06:50:00,39.5,37.1,30.17,NW,315,0.0,0.0,91,0.00,,CLR,0.00,VWS V14.01,2013-11-11 14:50:00,
2013-11-11 06:55:00,39.7,37.3,30.17,NW,315,0.0,0.0,91,0.00,,CLR,0.00,VWS V14.01,2013-11-11 14:55:00,
2013-11-11 07:00:00,39.9,37.5,30.17,NW,315,0.0,0.0,91,0.00,,CLR,0.00,VWS V14.01,2013-11-11 15:00:00,
2013-11-11 07:05:00,39.9,37.5,30.17,NW,315,0.0,0.0,91,0.00,,CLR,0.00,VWS V14.01,2013-11-11 15:05:00,
2013-11-11 07:10:00,39.7,37.3,30.16,ENE,68,0.0,0.0,91,0.00,,CLR,0.00,VWS V14.01,2013-11-11 15:10:00,
2013-11-11 07:15:00,39.7,37.3,30.16,ENE,68,0.0,0.0,91,0.00,,CLR,0.00,VWS V14.01,2013-11-11 15:15:00,
2013-11-11 07:20:00,39.7,37.3,30.16,ENE,68,0.0,0.0,91,0.00,,CLR,0.00,VWS V14.01,2013-11-11 15:20:00,
2013-11-11 07:25:00,39.7,37.3,30.16,ENE,68,0.0,0.0,91,0.00,,CLR,0.00,VWS V14.01,2013-11-11 15:25:00,
2013-11-11 07:30:00,39.9,37.5,30.16,ENE,68,0.0,0.0,91,0.00,,CLR,0.00,VWS V14.01,2013-11-11 15:30:00,
2013-11-11 07:35:00,39.9,37.5,30.16,NE,45,0.0,0.0,91,0.00,,CLR,0.00,VWS V14.01,2013-11-11 15:35:00,
2013-11-11 07:40:00,40.1,37.7,30.17,NW,315,0.0,0.0,91,0.00,,CLR,0.00,VWS V14.01,2013-11-11 15:40:00,
2013-11-11 07:45:00,40.2,37.8,30.17,NW,315,0.0,0.0,91,0.00,,CLR,0.00,VWS V14.01,2013-11-11 15:45:00,
2013-11-11 07:50:00,40.4,38.0,30.17,NW,315,0.0,0.0,91,0.00,,CLR,0.00,VWS V14.01,2013-11-11 15:50:00,
2013-11-11 07:55:00,40.6,38.2,30.18,NW,315,0.0,0.0,91,0.00,,CLR,0.00,VWS V14.01,2013-11-11 15:55:00,
2013-11-11 08:00:00,40.8,38.4,30.18,NW,315,0.0,0.0,91,0.00,,CLR,0.00,VWS V14.01,2013-11-11 16:00:00,
2013-11-11 08:05:00,40.8,38.4,30.18,NW,315,0.0,0.0,91,0.00,,CLR,0.00,VWS V14.01,2013-11-11 16:05:00,
2013-11-11 08:10:00,40.8,38.4,30.19,NW,315,0.0,0.0,91,0.00,,CLR,0.00,VWS V14.01,2013-11-11 16:10:00,
2013-11-11 08:15:00,40.8,38.4,30.18,NW,315,0.0,0.0,91,0.00,,CLR,0.00,VWS V14.01,2013-11-11 16:15:00,
2013-11-11 08:20:00,40.8,38.4,30.18,NW,315,0.0,0.0,91,0.00,,CLR,0.00,VWS V14.01,2013-11-11 16:20:00,
2013-11-11 08:25:00,40.8,38.4,30.18,NW,315,0.0,0.0,91,0.00,,CLR,0.00,VWS V14.01,2013-11-11 16:25:00,
2013-11-11 08:30:00,41.1,38.7,30.18,NW,315,0.0,0.0,91,0.00,,CLR,0.00,VWS V14.01,2013-11-11 16:30:00,
2013-11-11 08:35:00,41.3,38.9,30.18,NW,315,0.0,0.0,91,0.00,,CLR,0.00,VWS V14.01,2013-11-11 16:35:00,
2013-11-11 08:40:00,41.5,39.1,30.18,NW,315,0.0,0.0,91,0.00,,CLR,0.00,VWS V14.01,2013-11-11 16:40:00,
2013-11-11 08:45:00,41.7,39.3,30.19,NW,315,0.0,0.0,91,0.00,,CLR,0.00,VWS V14.01,2013-11-11 16:45:00,
2013-11-11 08:50:00,41.7,39.3,30.18,NW,315,0.0,0.0,91,0.00,,CLR,0.00,VWS V14.01,2013-11-11 16:50:00,
2013-11-11 08:55:00,42.0,39.6,30.18,NW,315,0.0,0.0,91,0.00,,CLR,0.00,VWS V14.01,2013-11-11 16:55:00,
2013-11-11 09:00:00,42.0,39.6,30.19,NW,315,0.0,0.0,91,0.00,,CLR,0.00,VWS V14.01,2013-11-11 17:00:00,
2013-11-11 09:05:00,42.4,40.0,30.18,NW,315,0.0,0.0,91,0.00,,CLR,0.00,VWS V14.01,2013-11-11 17:05:00,
2013-11-11 09:10:00,42.6,40.2,30.18,WNW,292,0.0,0.0,91,0.00,,CLR,0.00,VWS V14.01,2013-11-11 17:10:00,
2013-11-11 09:15:00,42.6,40.2,30.18,NW,315,0.0,0.0,91,0.00,,CLR,0.00,VWS V14.01,2013-11-11 17:15:00,
2013-11-11 09:20:00,42.8,40.4,30.18,WNW,292,0.0,0.0,91,0.00,,CLR,0.00,VWS V14.01,2013-11-11 17:20:00,
2013-11-11 09:25:00,43.3,40.8,30.18,WNW,292,0.0,0.0,91,0.00,,CLR,0.00,VWS V14.01,2013-11-11 17:25:00,
2013-11-11 09:30:00,43.5,41.3,30.18,WNW,292,0.0,0.0,92,0.00,,CLR,0.00,VWS V14.01,2013-11-11 17:30:00,
2013-11-11 09:35:00,43.8,41.3,30.18,WNW,292,0.0,0.0,91,0.00,,CLR,0.00,VWS V14.01,2013-11-11 17:35:00,
2013-11-11 09:40:00,44.4,41.9,30.18,WNW,292,0.0,0.0,91,0.00,,CLR,0.00,VWS V14.01,2013-11-11 17:40:00,
2013-11-11 09:45:00,44.6,42.1,30.18,WNW,292,0.0,0.0,91,0.00,,CLR,0.00,VWS V14.01,2013-11-11 17:45:00,
2013-11-11 09:50:00,44.7,42.2,30.17,WNW,292,0.0,0.0,91,0.00,,CLR,0.00,VWS V14.01,2013-11-11 17:50:00,
2013-11-11 09:55:00,44.9,42.4,30.17,WNW,292,0.0,0.0,91,0.00,,CLR,0.00,VWS V14.01,2013-11-11 17:55:00,
2013-11-11 10:00:00,45.1,42.6,30.16,WNW,292,0.0,0.0,91,0.00,,CLR,0.00,VWS V14.01,2013-11-11 18:00:00,
2013-11-11 10:05:00,45.3,42.8,30.17,WNW,292,0.0,0.0,91,0.00,,CLR,0.00,VWS V14.01,2013-11-11 18:05:00,
2013-11-11 10:10:00,46.0,43.5,30.17,WNW,292,0.0,0.0,91,0.00,,CLR,0.00,VWS V14.01,2013-11-11 18:10:00,
2013-11-11 10:15:00,46.5,44.0,30.17,WSW,248,0.0,0.0,91,0.00,,CLR,0.00,VWS V14.01,2013-11-11 18:15:00,
2013-11-11 10:20:00,47.3,44.8,30.17,South,180,0.0,0.0,91,0.00,,CLR,0.00,VWS V14.01,2013-11-11 18:20:00,
2013-11-11 10:25:00,48.0,45.5,30.17,South,180,0.0,0.0,91,0.00,,CLR,0.00,VWS V14.01,2013-11-11 18:25:00,
2013-11-11 10:30:00,48.3,45.8,30.16,South,180,0.0,0.0,91,0.00,,CLR,0.00,VWS V14.01,2013-11-11 18:30:00,
2013-11-11 10:35:00,48.7,46.2,30.17,South,180,0.0,0.0,91,0.00,,CLR,0.00,VWS V14.01,2013-11-11 18:35:00,
2013-11-11 10:40:00,48.9,46.4,30.16,South,180,0.0,0.0,91,0.00,,CLR,0.00,VWS V14.01,2013-11-11 18:40:00,
2013-11-11 10:45:00,49.1,46.3,30.16,South,180,0.0,0.0,90,0.00,,CLR,0.00,VWS V14.01,2013-11-11 18:45:00,
2013-11-11 10:50:00,49.2,46.4,30.16,South,180,0.0,0.0,90,0.00,,CLR,0.00,VWS V14.01,2013-11-11 18:50:00,
2013-11-11 10:55:00,50.0,47.2,30.15,South,180,0.0,0.0,90,0.00,,CLR,0.00,VWS V14.01,2013-11-11 18:55:00,
2013-11-11 11:00:00,50.7,47.9,30.15,SE,135,0.0,0.0,90,0.00,,CLR,0.00,VWS V14.01,2013-11-11 19:00:00,
2013-11-11 11:05:00,51.4,48.3,30.15,SSE,158,0.0,0.0,89,0.00,,CLR,0.00,VWS V14.01,2013-11-11 19:05:00,
2013-11-11 11:10:00,51.9,48.8,30.15,SSE,158,0.0,0.0,89,0.00,,CLR,0.00,VWS V14.01,2013-11-11 19:10:00,
2013-11-11 11:15:00,52.3,48.9,30.15,SSE,158,0.0,0.0,88,0.00,,CLR,0.00,VWS V14.01,2013-11-11 19:15:00,
2013-11-11 11:20:00,52.8,49.0,30.15,SSE,158,0.0,0.0,87,0.00,,CLR,0.00,VWS V14.01,2013-11-11 19:20:00,
2013-11-11 11:25:00,53.2,49.4,30.14,NE,45,0.0,0.0,87,0.00,,CLR,0.00,VWS V14.01,2013-11-11 19:25:00,
2013-11-11 11:30:00,53.2,49.1,30.14,NE,45,0.0,0.0,86,0.00,,CLR,0.00,VWS V14.01,2013-11-11 19:30:00,
2013-11-11 11:35:00,53.2,48.8,30.14,SSW,202,0.0,0.0,85,0.00,,CLR,0.00,VWS V14.01,2013-11-11 19:35:00,
2013-11-11 11:40:00,53.2,48.5,30.14,West,270,0.0,0.0,84,0.00,,CLR,0.00,VWS V14.01,2013-11-11 19:40:00,
2013-11-11 11:45:00,53.4,48.7,30.15,WSW,248,0.0,0.0,84,0.00,,CLR,0.00,VWS V14.01,2013-11-11 19:45:00,
2013-11-11 11:50:00,53.9,48.9,30.14,WSW,248,0.0,0.0,83,0.00,,CLR,0.00,VWS V14.01,2013-11-11 19:50:00,
2013-11-11 11:55:00,54.1,48.7,30.15,WSW,248,0.0,0.0,82,0.00,,CLR,0.00,VWS V14.01,2013-11-11 19:55:00,
2013-11-11 12:00:00,54.1,48.7,30.15,WSW,248,0.0,0.0,82,0.00,,CLR,0.00,VWS V14.01,2013-11-11 20:00:00,
2013-11-11 12:05:00,54.3,48.9,30.15,WSW,248,0.0,0.0,82,0.00,,CLR,0.00,VWS V14.01,2013-11-11 20:05:00,
2013-11-11 12:10:00,54.3,48.9,30.15,SSW,202,0.0,0.0,82,0.00,,CLR,0.00,VWS V14.01,2013-11-11 20:10:00,
2013-11-11 12:15:00,54.5,49.5,30.15,SSW,202,0.0,0.0,83,0.00,,CLR,0.00,VWS V14.01,2013-11-11 20:15:00,
2013-11-11 12:20:00,54.5,49.1,30.15,SSW,202,0.0,0.0,82,0.00,,CLR,0.00,VWS V14.01,2013-11-11 20:20:00,
2013-11-11 12:25:00,54.6,49.2,30.14,SSW,202,0.0,0.0,82,0.00,,CLR,0.00,VWS V14.01,2013-11-11 20:25:00,
2013-11-11 12:30:00,54.6,49.5,30.13,ENE,68,2.2,2.2,83,0.00,,CLR,0.00,VWS V14.01,2013-11-11 20:30:00,
2013-11-11 12:35:00,54.6,49.2,30.13,SE,135,1.5,1.5,82,0.00,,CLR,0.00,VWS V14.01,2013-11-11 20:35:00,
2013-11-11 12:40:00,55.0,49.3,30.13,SE,135,0.0,0.0,81,0.00,,CLR,0.00,VWS V14.01,2013-11-11 20:40:00,
2013-11-11 12:45:00,55.0,49.0,30.13,SE,135,0.0,0.0,80,0.00,,CLR,0.00,VWS V14.01,2013-11-11 20:45:00,
2013-11-11 12:50:00,55.2,49.5,30.12,SE,135,0.0,0.0,81,0.00,,CLR,0.00,VWS V14.01,2013-11-11 20:50:00,
2013-11-11 12:55:00,55.4,49.3,30.13,NE,45,0.0,0.0,80,0.00,,CLR,0.00,VWS V14.01,2013-11-11 20:55:00,
2013-11-11 13:00:00,55.5,49.4,30.12,ENE,68,0.0,0.0,80,0.00,,CLR,0.00,VWS V14.01,2013-11-11 21:00:00,
2013-11-11 13:05:00,55.5,49.4,30.12,NNE,22,0.8,0.8,80,0.00,,CLR,0.00,VWS V14.01,2013-11-11 21:05:00,
2013-11-11 13:10:00,55.9,49.8,30.11,NNE,22,0.0,0.0,80,0.00,,CLR,0.00,VWS V14.01,2013-11-11 21:10:00,
2013-11-11 13:15:00,56.4,50.0,30.11,NNE,22,0.0,0.0,79,0.00,,CLR,0.00,VWS V14.01,2013-11-11 21:15:00,
2013-11-11 13:20:00,56.4,50.0,30.11,NNE,22,0.0,0.0,79,0.00,,CLR,0.00,VWS V14.01,2013-11-11 21:20:00,
2013-11-11 13:25:00,56.1,49.7,30.11,NNE,22,0.0,0.0,79,0.00,,CLR,0.00,VWS V14.01,2013-11-11 21:25:00,
2013-11-11 13:30:00,55.9,49.8,30.10,NNE,22,0.0,0.6,80,0.00,,CLR,0.00,VWS V14.01,2013-11-11 21:30:00,
2013-11-11 13:35:00,55.5,49.4,30.11,NNE,22,0.0,0.0,80,0.00,,CLR,0.00,VWS V14.01,2013-11-11 21:35:00,
2013-11-11 13:40:00,55.2,49.2,30.11,NNE,22,0.0,0.0,80,0.00,,CLR,0.00,VWS V14.01,2013-11-11 21:40:00,
2013-11-11 13:45:00,55.2,49.5,30.11,NE,45,0.0,0.0,81,0.00,,CLR,0.00,VWS V14.01,2013-11-11 21:45:00,
2013-11-11 13:50:00,55.0,49.3,30.10,NE,45,0.0,0.0,81,0.00,,CLR,0.00,VWS V14.01,2013-11-11 21:50:00,
2013-11-11 13:55:00,54.6,48.9,30.11,NE,45,0.0,0.0,81,0.00,,CLR,0.00,VWS V14.01,2013-11-11 21:55:00,
2013-11-11 14:00:00,54.5,48.8,30.11,NE,45,0.0,0.0,81,0.00,,CLR,0.00,VWS V14.01,2013-11-11 22:00:00,
2013-11-11 14:05:00,54.3,48.6,30.10,NE,45,0.8,0.8,81,0.00,,CLR,0.00,VWS V14.01,2013-11-11 22:05:00,
2013-11-11 14:10:00,54.1,48.7,30.10,NE,45,0.0,0.0,82,0.00,,CLR,0.00,VWS V14.01,2013-11-11 22:10:00,
2013-11-11 14:15:00,54.1,48.7,30.11,NE,45,0.0,0.0,82,0.00,,CLR,0.00,VWS V14.01,2013-11-11 22:15:00,
2013-11-11 14:20:00,54.1,48.7,30.10,NE,45,1.5,1.5,82,0.00,,CLR,0.00,VWS V14.01,2013-11-11 22:20:00,
2013-11-11 14:25:00,53.9,48.5,30.09,NE,45,0.0,0.0,82,0.00,,CLR,0.00,VWS V14.01,2013-11-11 22:25:00,
2013-11-11 14:30:00,53.9,48.5,30.09,NE,45,0.0,0.0,82,0.00,,CLR,0.00,VWS V14.01,2013-11-11 22:30:00,
2013-11-11 14:35:00,53.7,48.0,30.09,NE,45,0.0,0.0,81,0.00,,CLR,0.00,VWS V14.01,2013-11-11 22:35:00,
2013-11-11 14:40:00,53.7,48.3,30.09,NE,45,0.0,0.0,82,0.00,,CLR,0.00,VWS V14.01,2013-11-11 22:40:00,
2013-11-11 14:45:00,53.4,48.0,30.09,NE,45,0.0,0.0,82,0.00,,CLR,0.00,VWS V14.01,2013-11-11 22:45:00,
2013-11-11 14:50:00,53.2,47.9,30.09,NE,45,0.0,0.0,82,0.00,,CLR,0.00,VWS V14.01,2013-11-11 22:50:00,
2013-11-11 14:55:00,53.0,48.0,30.09,NE,45,0.0,0.0,83,0.00,,CLR,0.00,VWS V14.01,2013-11-11 22:55:00,
2013-11-11 15:01:00,52.8,47.8,30.08,NE,45,0.0,0.0,83,0.00,,CLR,0.00,VWS V14.01,2013-11-11 23:01:00,
2013-11-11 15:06:00,52.5,47.5,30.08,NE,45,0.0,0.0,83,0.00,,CLR,0.00,VWS V14.01,2013-11-11 23:06:00,
2013-11-11 15:11:00,52.3,47.6,30.08,NE,45,0.0,0.0,84,0.00,,CLR,0.00,VWS V14.01,2013-11-11 23:11:00,
2013-11-11 15:16:00,52.3,47.6,30.08,NE,45,0.0,0.0,84,0.00,,CLR,0.00,VWS V14.01,2013-11-11 23:16:00,
2013-11-11 15:21:00,52.3,47.6,30.09,NE,45,0.0,0.0,84,0.00,,CLR,0.00,VWS V14.01,2013-11-11 23:21:00,
2013-11-11 15:26:00,52.1,47.4,30.09,NE,45,0.0,0.0,84,0.00,,CLR,0.00,VWS V14.01,2013-11-11 23:26:00,
2013-11-11 15:31:00,51.9,47.2,30.09,NE,45,0.0,0.0,84,0.00,,CLR,0.00,VWS V14.01,2013-11-11 23:31:00,
2013-11-11 15:36:00,51.8,47.1,30.09,NE,45,0.0,0.0,84,0.00,,CLR,0.00,VWS V14.01,2013-11-11 23:36:00,
2013-11-11 15:41:00,51.6,47.2,30.09,NE,45,0.0,0.0,85,0.00,,CLR,0.00,VWS V14.01,2013-11-11 23:41:00,
2013-11-11 15:46:00,51.6,47.2,30.09,NE,45,0.0,0.0,85,0.00,,CLR,0.00,VWS V14.01,2013-11-11 23:46:00,
2013-11-11 15:51:00,51.4,47.0,30.08,NE,45,0.0,0.0,85,0.00,,CLR,0.00,VWS V14.01,2013-11-11 23:51:00,
2013-11-11 15:56:00,51.0,46.7,30.08,NE,45,0.0,0.0,85,0.00,,CLR,0.00,VWS V14.01,2013-11-11 23:56:00,
2013-11-11 16:01:00,50.9,46.6,30.08,NE,45,0.0,0.0,85,0.00,,CLR,0.00,VWS V14.01,2013-11-12 00:01:00,
2013-11-11 16:06:00,50.7,46.4,30.08,NE,45,0.0,0.0,85,0.00,,CLR,0.00,VWS V14.01,2013-11-12 00:06:00,
2013-11-11 16:11:00,50.5,46.2,30.07,NE,45,0.0,0.0,85,0.00,,CLR,0.00,VWS V14.01,2013-11-12 00:11:00,
2013-11-11 16:16:00,50.3,46.0,30.07,NE,45,0.0,0.0,85,0.00,,CLR,0.00,VWS V14.01,2013-11-12 00:16:00,
2013-11-11 16:21:00,50.0,46.0,30.07,NE,45,0.0,0.0,86,0.00,,CLR,0.00,VWS V14.01,2013-11-12 00:21:00,
2013-11-11 16:27:00,49.8,45.8,30.07,NE,45,0.0,0.0,86,0.00,,CLR,0.00,VWS V14.01,2013-11-12 00:27:00,
2013-11-11 16:32:00,49.2,45.2,30.07,NE,45,0.0,0.0,86,0.00,,CLR,0.00,VWS V14.01,2013-11-12 00:32:00,
2013-11-11 16:37:00,49.1,45.1,30.06,NE,45,0.0,0.0,86,0.00,,CLR,0.00,VWS V14.01,2013-11-12 00:37:00,
2013-11-11 16:42:00,48.9,44.9,30.06,NE,45,0.0,0.0,86,0.00,,CLR,0.00,VWS V14.01,2013-11-12 00:42:00,
2013-11-11 16:47:00,48.7,44.7,30.06,NE,45,0.0,0.0,86,0.00,,CLR,0.00,VWS V14.01,2013-11-12 00:47:00,
2013-11-11 16:52:00,48.3,44.3,30.06,NE,45,0.0,0.0,86,0.00,,CLR,0.00,VWS V14.01,2013-11-12 00:52:00,
2013-11-11 16:57:00,48.2,44.5,30.06,NE,45,0.0,0.0,87,0.00,,CLR,0.00,VWS V14.01,2013-11-12 00:57:00,
2013-11-11 17:02:00,48.0,44.3,30.06,ENE,68,0.0,0.0,87,0.00,,CLR,0.00,VWS V14.01,2013-11-12 01:02:00,
2013-11-11 17:07:00,47.8,44.1,30.06,ENE,68,0.0,0.0,87,0.00,,CLR,0.00,VWS V14.01,2013-11-12 01:07:00,
2013-11-11 17:12:00,47.6,43.9,30.06,ENE,68,0.0,0.0,87,0.00,,CLR,0.00,VWS V14.01,2013-11-12 01:12:00,
2013-11-11 17:17:00,47.3,43.6,30.07,ENE,68,0.0,0.0,87,0.00,,CLR,0.00,VWS V14.01,2013-11-12 01:17:00,
2013-11-11 17:22:00,47.1,43.4,30.07,ENE,68,0.0,0.0,87,0.00,,CLR,0.00,VWS V14.01,2013-11-12 01:22:00,
2013-11-11 17:27:00,47.1,43.4,30.07,ENE,68,0.0,0.0,87,0.00,,CLR,0.00,VWS V14.01,2013-11-12 01:27:00,
2013-11-11 17:32:00,46.9,43.5,30.07,ENE,68,0.0,0.0,88,0.00,,CLR,0.00,VWS V14.01,2013-11-12 01:32:00,
2013-11-11 17:37:00,46.7,43.3,30.07,ENE,68,0.0,0.0,88,0.00,,CLR,0.00,VWS V14.01,2013-11-12 01:37:00,
2013-11-11 17:42:00,46.5,43.1,30.07,SSE,158,0.0,0.0,88,0.00,,CLR,0.00,VWS V14.01,2013-11-12 01:42:00,
2013-11-11 17:48:00,46.4,43.0,30.06,SSE,158,0.0,0.0,88,0.00,,CLR,0.00,VWS V14.01,2013-11-12 01:48:00,
2013-11-11 17:53:00,46.2,42.8,30.07,SSE,158,0.0,0.0,88,0.00,,CLR,0.00,VWS V14.01,2013-11-12 01:53:00,
2013-11-11 17:58:00,46.2,42.8,30.07,SSE,158,0.0,0.0,88,0.00,,CLR,0.00,VWS V14.01,2013-11-12 01:58:00,
2013-11-11 18:03:00,46.0,42.7,30.07,SSE,158,0.0,0.0,88,0.00,,CLR,0.00,VWS V14.01,2013-11-12 02:03:00,
2013-11-11 18:08:00,46.0,42.7,30.06,SSE,158,0.0,0.0,88,0.00,,CLR,0.00,VWS V14.01,2013-11-12 02:08:00,
2013-11-11 18:13:00,46.0,42.7,30.07,SSE,158,0.0,0.0,88,0.00,,CLR,0.00,VWS V14.01,2013-11-12 02:13:00,
2013-11-11 18:18:00,45.6,42.3,30.06,SSE,158,0.0,0.0,88,0.00,,CLR,0.00,VWS V14.01,2013-11-12 02:18:00,
2013-11-11 18:23:00,45.6,42.5,30.06,SSE,158,0.0,0.0,89,0.00,,CLR,0.00,VWS V14.01,2013-11-12 02:23:00,
2013-11-11 18:28:00,45.5,42.5,30.06,SSE,158,0.0,0.0,89,0.00,,CLR,0.00,VWS V14.01,2013-11-12 02:28:00,
2013-11-11 18:33:00,45.5,42.5,30.06,SSE,158,0.0,0.0,89,0.00,,CLR,0.00,VWS V14.01,2013-11-12 02:33:00,
2013-11-11 18:38:00,45.5,42.5,30.06,SSE,158,0.0,0.0,89,0.00,,CLR,0.00,VWS V14.01,2013-11-12 02:38:00,
2013-11-11 18:43:00,45.3,42.3,30.06,SSE,158,0.0,0.0,89,0.00,,CLR,0.00,VWS V14.01,2013-11-12 02:43:00,
2013-11-11 18:48:00,45.3,42.3,30.05,SSE,158,0.0,0.0,89,0.00,,CLR,0.00,VWS V14.01,2013-11-12 02:48:00,
2013-11-11 18:53:00,45.1,42.1,30.05,SSE,158,0.0,0.0,89,0.00,,CLR,0.00,VWS V14.01,2013-11-12 02:53:00,
2013-11-11 18:59:00,45.1,42.1,30.04,SSE,158,0.0,0.0,89,0.00,,CLR,0.00,VWS V14.01,2013-11-12 02:59:00,
2013-11-11 19:04:00,44.9,41.9,30.05,SSE,158,0.0,0.0,89,0.00,,CLR,0.00,VWS V14.01,2013-11-12 03:04:00,
2013-11-11 19:09:00,44.9,41.9,30.05,SSE,158,0.0,0.0,89,0.00,,CLR,0.00,VWS V14.01,2013-11-12 03:09:00,
2013-11-11 19:14:00,44.9,41.9,30.05,SSE,158,0.0,0.0,89,0.00,,CLR,0.00,VWS V14.01,2013-11-12 03:14:00,
2013-11-11 19:19:00,44.7,42.0,30.06,SSE,158,0.0,0.0,90,0.00,,CLR,0.00,VWS V14.01,2013-11-12 03:19:00,
2013-11-11 19:24:00,44.7,42.0,30.05,SSE,158,0.0,0.0,90,0.00,,CLR,0.00,VWS V14.01,2013-11-12 03:24:00,
2013-11-11 19:29:00,44.6,41.8,30.04,SSE,158,0.0,0.0,90,0.00,,CLR,0.00,VWS V14.01,2013-11-12 03:29:00,
2013-11-11 19:34:00,44.4,41.7,30.05,SSE,158,0.0,0.0,90,0.00,,CLR,0.00,VWS V14.01,2013-11-12 03:34:00,
2013-11-11 19:39:00,44.4,41.7,30.05,SSE,158,0.0,0.0,90,0.00,,CLR,0.00,VWS V14.01,2013-11-12 03:39:00,
2013-11-11 19:44:00,44.4,41.7,30.05,SSE,158,0.0,0.0,90,0.00,,CLR,0.00,VWS V14.01,2013-11-12 03:44:00,
2013-11-11 19:49:00,44.2,41.5,30.05,SSE,158,0.0,0.0,90,0.00,,CLR,0.00,VWS V14.01,2013-11-12 03:49:00,
2013-11-11 19:54:00,44.2,41.5,30.05,SSE,158,0.0,0.0,90,0.00,,CLR,0.00,VWS V14.01,2013-11-12 03:54:00,
2013-11-11 19:59:00,44.2,41.5,30.05,SSE,158,0.0,0.0,90,0.00,,CLR,0.00,VWS V14.01,2013-11-12 03:59:00,
2013-11-11 20:04:00,44.0,41.3,30.05,SSE,158,0.0,0.0,90,0.00,,CLR,0.00,VWS V14.01,2013-11-12 04:04:00,
2013-11-11 20:09:00,43.8,41.1,30.04,SSE,158,0.0,0.0,90,0.00,,CLR,0.00,VWS V14.01,2013-11-12 04:09:00,
2013-11-11 20:15:00,43.8,41.1,30.05,SSE,158,0.0,0.0,90,0.00,,CLR,0.00,VWS V14.01,2013-11-12 04:15:00,
2013-11-11 20:20:00,43.7,41.0,30.05,SSE,158,0.0,0.0,90,0.00,,CLR,0.00,VWS V14.01,2013-11-12 04:20:00,
2013-11-11 20:25:00,43.5,40.5,30.05,SSE,158,0.0,0.0,89,0.00,,CLR,0.00,VWS V14.01,2013-11-12 04:25:00,
2013-11-11 20:30:00,43.5,40.5,30.05,SSE,158,0.0,0.0,89,0.00,,CLR,0.00,VWS V14.01,2013-11-12 04:30:00,
2013-11-11 20:35:00,43.3,40.6,30.05,SSE,158,0.0,0.0,90,0.00,,CLR,0.00,VWS V14.01,2013-11-12 04:35:00,
2013-11-11 20:40:00,43.1,40.4,30.05,SSE,158,0.0,0.0,90,0.00,,CLR,0.00,VWS V14.01,2013-11-12 04:40:00,
2013-11-11 20:45:00,42.9,40.2,30.05,SSE,158,0.0,0.0,90,0.00,,CLR,0.00,VWS V14.01,2013-11-12 04:45:00,
2013-11-11 20:50:00,42.9,40.2,30.05,SSE,158,0.0,0.0,90,0.00,,CLR,0.00,VWS V14.01,2013-11-12 04:50:00,
2013-11-11 20:55:00,42.6,39.9,30.05,SSE,158,0.0,0.0,90,0.00,,CLR,0.00,VWS V14.01,2013-11-12 04:55:00,
2013-11-11 21:00:00,42.6,39.9,30.05,SSE,158,0.0,0.0,90,0.00,,CLR,0.00,VWS V14.01,2013-11-12 05:00:00,
2013-11-11 21:01:00,42.6,39.9,30.05,SSE,158,0.0,0.0,90,0.00,,CLR,0.00,VWS V14.01,2013-11-12 05:01:00,
2013-11-11 21:03:00,42.6,39.9,30.05,SSE,158,0.0,0.0,90,0.00,,CLR,0.00,VWS V14.01,2013-11-12 05:03:00,
2013-11-11 21:05:00,42.6,39.9,30.05,SSE,158,0.0,0.0,90,0.00,,CLR,0.00,VWS V14.01,2013-11-12 05:05:00,
2013-11-11 21:06:00,42.6,39.9,30.05,SSE,158,0.0,0.0,90,0.00,,CLR,0.00,VWS V14.01,2013-11-12 05:06:00,
2013-11-11 21:11:00,42.4,39.7,30.05,SSE,158,0.0,0.0,90,0.00,,CLR,0.00,VWS V14.01,2013-11-12 05:11:00,
2013-11-11 21:16:00,42.4,39.7,30.05,SSE,158,0.0,0.0,90,0.00,,CLR,0.00,VWS V14.01,2013-11-12 05:16:00,
2013-11-11 21:21:00,42.4,39.7,30.05,SSE,158,0.0,0.0,90,0.00,,CLR,0.00,VWS V14.01,2013-11-12 05:21:00,
2013-11-11 21:26:00,42.0,39.3,30.05,SSE,158,0.0,0.0,90,0.00,,CLR,0.00,VWS V14.01,2013-11-12 05:26:00,
2013-11-11 21:31:00,42.0,39.3,30.04,SSE,158,0.0,0.0,90,0.00,,CLR,0.00,VWS V14.01,2013-11-12 05:31:00,
2013-11-11 21:36:00,42.0,39.3,30.04,SSE,158,0.0,0.0,90,0.00,,CLR,0.00,VWS V14.01,2013-11-12 05:36:00,
2013-11-11 21:42:00,41.9,39.2,30.04,SSE,158,0.0,0.0,90,0.00,,CLR,0.00,VWS V14.01,2013-11-12 05:42:00,
2013-11-11 21:47:00,41.9,39.2,30.04,SSE,158,0.0,0.0,90,0.00,,CLR,0.00,VWS V14.01,2013-11-12 05:47:00,
2013-11-11 21:52:00,41.7,39.0,30.03,SSE,158,0.0,0.0,90,0.00,,CLR,0.00,VWS V14.01,2013-11-12 05:52:00,
2013-11-11 21:57:00,41.7,39.0,30.03,SSE,158,0.0,0.0,90,0.00,,CLR,0.00,VWS V14.01,2013-11-12 05:57:00,
2013-11-11 22:02:00,41.7,39.0,30.03,SSE,158,0.0,0.0,90,0.00,,CLR,0.00,VWS V14.01,2013-11-12 06:02:00,
2013-11-11 22:07:00,41.5,38.8,30.03,SSE,158,0.0,0.0,90,0.00,,CLR,0.00,VWS V14.01,2013-11-12 06:07:00,
2013-11-11 22:12:00,41.5,38.8,30.03,SSE,158,0.0,0.0,90,0.00,,CLR,0.00,VWS V14.01,2013-11-12 06:12:00,
2013-11-11 22:17:00,41.5,38.8,30.03,SSE,158,0.0,0.0,90,0.00,,CLR,0.00,VWS V14.01,2013-11-12 06:17:00,
2013-11-11 22:22:00,41.5,38.8,30.03,SSE,158,0.0,0.0,90,0.00,,CLR,0.00,VWS V14.01,2013-11-12 06:22:00,
2013-11-11 22:27:00,41.5,38.8,30.03,SSE,158,0.0,0.0,90,0.00,,CLR,0.00,VWS V14.01,2013-11-12 06:27:00,
2013-11-11 22:32:00,41.5,38.8,30.03,SSE,158,0.0,0.0,90,0.00,,CLR,0.00,VWS V14.01,2013-11-12 06:32:00,
2013-11-11 22:37:00,41.5,38.8,30.04,SSE,158,0.0,0.0,90,0.00,,CLR,0.00,VWS V14.01,2013-11-12 06:37:00,
2013-11-11 22:42:00,41.5,39.1,30.04,SSE,158,0.0,0.0,91,0.00,,CLR,0.00,VWS V14.01,2013-11-12 06:42:00,
2013-11-11 22:47:00,41.5,39.1,30.04,SSE,158,0.0,0.0,91,0.00,,CLR,0.00,VWS V14.01,2013-11-12 06:47:00,
2013-11-11 22:52:00,41.5,39.1,30.04,SSE,158,0.0,0.0,91,0.00,,CLR,0.00,VWS V14.01,2013-11-12 06:52:00,
2013-11-11 22:57:00,41.5,39.1,30.05,SSE,158,0.0,0.0,91,0.00,,CLR,0.00,VWS V14.01,2013-11-12 06:57:00,
2013-11-11 23:03:00,41.5,39.1,30.04,SSE,158,0.0,0.0,91,0.00,,CLR,0.00,VWS V14.01,2013-11-12 07:03:00,
2013-11-11 23:08:00,41.5,39.1,30.05,SSE,158,0.0,0.0,91,0.00,,CLR,0.00,VWS V14.01,2013-11-12 07:08:00,
2013-11-11 23:13:00,41.3,38.9,30.05,SSE,158,0.0,0.0,91,0.00,,CLR,0.00,VWS V14.01,2013-11-12 07:13:00,
2013-11-11 23:18:00,41.3,38.9,30.05,SSE,158,0.0,0.0,91,0.00,,CLR,0.00,VWS V14.01,2013-11-12 07:18:00,
2013-11-11 23:23:00,41.3,38.9,30.05,SSE,158,0.0,0.0,91,0.00,,CLR,0.00,VWS V14.01,2013-11-12 07:23:00,
2013-11-11 23:28:00,41.3,38.9,30.05,SSE,158,0.0,0.0,91,0.00,,CLR,0.00,VWS V14.01,2013-11-12 07:28:00,
2013-11-11 23:33:00,41.5,39.1,30.04,SSE,158,0.0,0.0,91,0.00,,CLR,0.00,VWS V14.01,2013-11-12 07:33:00,
2013-11-11 23:38:00,41.5,39.1,30.04,SSE,158,0.0,0.0,91,0.00,,CLR,0.00,VWS V14.01,2013-11-12 07:38:00,
2013-11-11 23:43:00,41.5,39.1,30.05,SSE,158,0.0,0.0,91,0.00,,CLR,0.00,VWS V14.01,2013-11-12 07:43:00,
2013-11-11 23:48:00,41.5,39.1,30.05,SSE,158,0.0,0.0,91,0.00,,CLR,0.00,VWS V14.01,2013-11-12 07:48:00,
2013-11-11 23:53:00,41.3,38.9,30.04,SSE,158,0.0,0.0,91,0.00,,CLR,0.00,VWS V14.01,2013-11-12 07:53:00,
2013-11-11 23:58:00,41.3,38.9,30.04,SSE,158,0.0,0.0,91,0.00,,CLR,0.00,VWS V14.01,2013-11-12 07:58:00,